Regional Weather Roundup
Issued by NWS

Home | Current Version | Previous Version | Text Only | Print | Product List | Glossary On
Versions: 1 2 3 4 5 6 7 8 9 10 11 12 13 14 15 16 17 18 19 20 21 22 23 24 25 26 27 28 29 30 31 32 33 34 35 36 37 38 39 40 41 42 43 44 45 46 47 48 49 50
000
ASUS43 KMKX 051810
RWRWI

WISCONSIN REGIONAL WEATHER ROUNDUP
NATIONAL WEATHER SERVICE MILWAUKEE/SULLIVAN WI
1200 PM CST THU MAR 05 2015

NOTE: "FAIR" INDICATES FEW OR NO CLOUDS BELOW 12,000 FEET WITH NO
SIGNIFICANT WEATHER AND/OR OBSTRUCTIONS TO VISIBILITY.

WIZ001-002-006>008-014>016-023>028-051900-
NORTHWEST WISCONSIN

CITY           SKY/WX    TMP DP  RH WIND       PRES   REMARKS
SUPERIOR ARPT  FAIR       8  -9  46 W7        30.44F WCI  -4
6HR MIN TEMP: -15; 6HR MAX TEMP:   8;

ASHLAND        FAIR       7 -11  43 SW12      30.42F WCI  -8
6HR MIN TEMP: -12; 6HR MAX TEMP:   7;

HAYWARD        FAIR       4 -11  50 SW7       30.41F WCI  -8
6HR MIN TEMP: -27; 6HR MAX TEMP:   4; 6HR PCP: TRACE;

SIREN          FAIR       6  -9  50 W9        30.45F WCI  -8
6HR MIN TEMP: -22; 6HR MAX TEMP:   6;

CUMBERLAND     FAIR       3  -9  55 S6        30.43F WCI  -8
RICE LAKE      FAIR       4 -11  51 W6        30.48S WCI  -7
6HR MIN TEMP: -25; 6HR MAX TEMP:   4;

CHETEK         FAIR       3 -11  51 CALM      30.47S
6HR MIN TEMP: -20; 6HR MAX TEMP:   4;

LADYSMITH      FAIR       6 -10  47 SW8       30.44F WCI  -7
6HR MIN TEMP: -23; 6HR MAX TEMP:   6;

EAU CLAIRE     FAIR       3  -9  57 W10       30.49F WCI -12
6HR MIN TEMP: -13; 6HR MAX TEMP:   3;

MENOMONIE      FAIR       8  -8  48 SW5       30.50S WCI  -1
6HR MIN TEMP:  -8; 6HR MAX TEMP:   8;

NEW RICHMOND   FAIR       6  -8  51 SW3       30.48F
6HR MIN TEMP: -17; 6HR MAX TEMP:   6;

OSCEOLA        FAIR       8  -7  51 S5        30.52S WCI  -1
6HR MIN TEMP: -19; 6HR MAX TEMP:   8;

$$

WIZ003>005-009-010-017-018-051900-
NORTH CENTRAL WISCONSIN

CITY           SKY/WX    TMP DP  RH WIND       PRES   REMARKS
MANITOWISH WTR FAIR       5 -10  48 W10       30.33S WCI -10
6HR MIN TEMP: -26; 6HR MAX TEMP:   5;

ARBOR VITAE    FAIR       6 -10  47 SW6       30.33S WCI  -4
6HR MIN TEMP: -21; 6HR MAX TEMP:   6;

WOODRUFF       FAIR       6 -10  47 SW6       30.33S WCI  -4
6HR MIN TEMP: -21; 6HR MAX TEMP:   6;

RHINELANDER    FAIR       7  -9  48 W8        30.34F WCI  -6
6HR MIN TEMP: -20; 6HR MAX TEMP:   7; 6HR PCP: TRACE;

EAGLE RIVER    FAIR       6 -12  41 W7        30.32S WCI  -5
6HR MIN TEMP: -22; 6HR MAX TEMP:   6;

LAND O LAKES   FAIR       9 -10  41 SW6       30.32S WCI  -1
6HR MIN TEMP: -24; 6HR MAX TEMP:   9;

PHILLIPS       FAIR       5 -11  46 W7        30.37S WCI  -7
6HR MIN TEMP: -26; 6HR MAX TEMP:   5;

TOMAHAWK       FAIR       7 -11  43 CALM      30.37F
6HR MIN TEMP: -25; 6HR MAX TEMP:   7;

MEDFORD        FAIR       4 -11  50 SW9       30.40S WCI -10
6HR MIN TEMP: -17; 6HR MAX TEMP:   4;

MERRILL        FAIR       8 -10  44 W12       30.39S WCI  -7
6HR MIN TEMP: -23; 6HR MAX TEMP:   8;

$$

WIZ029-030-035-036-043>047-051900-
CENTRAL WISCONSIN

CITY           SKY/WX    TMP DP  RH WIND       PRES   REMARKS
WAUSAU         FAIR       4 -10  52 W9        30.41F WCI -10
6HR MIN TEMP:  -9; 6HR MAX TEMP:   4;

MOSINEE        SUNNY      5  -9  51 W9        30.43  WCI  -9
MARSHFIELD     FAIR       4 -10  52 NW9       30.44F WCI -10
6HR MIN TEMP: -12; 6HR MAX TEMP:   4;

STEVENS POINT  FAIR       5 -12  44 SW10      30.45S WCI -10
6HR MIN TEMP: -20; 6HR MAX TEMP:   5;

WAUPACA        FAIR      14  -7  37 W9G17     30.46F WCI   2
6HR MIN TEMP:  -4; 6HR MAX TEMP:  14;

WAUTOMA        FAIR      11  -9  40 NW7       30.47F WCI   0
6HR MIN TEMP: -14; 6HR MAX TEMP:  11;

WISC RAPIDS    FAIR       8 -11  41 NW8       30.47F WCI  -4
6HR MIN TEMP: -12; 6HR MAX TEMP:   8; 6HR PCP: TRACE;

CAMP DOUGLAS   SUNNY     10  -8  44 W9        30.48F WCI  -2
$$

WIZ011>013-019>022-031-037>040-048>050-051900-
NORTHEAST WISCONSIN

CITY           SKY/WX    TMP DP  RH WIND       PRES   REMARKS
ANTIGO         FAIR       5 -10  50 W10       30.36F WCI -10
6HR MIN TEMP: -22; 6HR MAX TEMP:   5;

SHAWANO        FAIR      12  -9  38 NW10G16   30.44F WCI  -1
6HR MIN TEMP:  -6; 6HR MAX TEMP:  13;

OCONTO         FAIR      12  -5  47 W13       30.44F WCI  -3
6HR MIN TEMP: -14; 6HR MAX TEMP:  12;

STURGEON BAY   FAIR       9  -6  52 W9        30.45F WCI  -5
6HR MIN TEMP:  -8; 6HR MAX TEMP:   9;

GREEN BAY      FAIR      10  -4  53 W13       30.45F WCI  -5
6HR MIN TEMP:  -7; 6HR MAX TEMP:  11;

MANITOWOC      FAIR      13  -3  49 W13       30.47R WCI  -2
6HR MIN TEMP:  -5; 6HR MAX TEMP:  14;

APPLETON       SUNNY     10  -9  40 W13       30.45F WCI  -5
CLINTONVILLE   FAIR      10  -8  44 W9        30.45S WCI  -2
OSHKOSH        FAIR      11  -4  51 VRB7G18   30.46F WCI   0
6HR MIN TEMP:  -4; 6HR MAX TEMP:  11;

$$

WIZ032>034-041-042-053>061-051900-
SOUTHWEST WISCONSIN

CITY           SKY/WX    TMP DP  RH WIND       PRES   REMARKS
LA CROSSE      FAIR      11  -8  42 NW7       30.54F WCI   0
6HR MIN TEMP:  -6; 6HR MAX TEMP:  11;

SPARTA         FAIR      10  -8  44 W6        30.51F WCI   0
6HR MIN TEMP: -15; 6HR MAX TEMP:  10;

VIROQUA        FAIR       8  -9  46 NW9       30.46F WCI  -6
6HR MIN TEMP: -10; 6HR MAX TEMP:   8;

BOSCOBEL       FAIR      11  -8  42 W7        30.54S WCI   0
6HR MIN TEMP: -10; 6HR MAX TEMP:  11; 6HR PCP: TRACE;

PRAIRIE DU CHI FAIR      10 -10  40 W10       30.55S WCI  -4
6HR MIN TEMP:  -6; 6HR MAX TEMP:  10;

PLATTEVILLE    FAIR       9  -4  54 W9        30.50S WCI  -4
6HR MIN TEMP:  -6; 6HR MAX TEMP:   9;

$$

WIZ056-057-062-063-064-067-068-051900-
SOUTH CENTRAL WISCONSIN

CITY           SKY/WX    TMP DP  RH WIND       PRES   REMARKS
REEDSBURG      FAIR       9  -7  47 W7        30.49S WCI  -2
6HR MIN TEMP:  -6; 6HR MAX TEMP:   9;

BARABOO/DELLS  FAIR       9 -10  40 NW9       30.47S WCI  -4
6HR MIN TEMP:  -8; 6HR MAX TEMP:   9;

LONE ROCK      FAIR      11  -7  44 W7        30.51F WCI   0
6HR MIN TEMP:  -8; 6HR MAX TEMP:  11;

MINERAL POINT  FAIR      10  -6  48 W10       30.47S WCI  -3
MADISON        FAIR      11  -9  40 NW8       30.49S WCI  -1
6HR MIN TEMP:  -4; 6HR MAX TEMP:  11;

MIDDLETON      FAIR      14  -9  36 W8        30.49S WCI   2
6HR MIN TEMP:  -5; 6HR MAX TEMP:  14;

WATERTOWN      FAIR      11  -6  45 W9        30.48S WCI  -2
6HR MIN TEMP:  -2; 6HR MAX TEMP:  11;

MONROE         FAIR      12  -4  48 W10       30.47S WCI  -1
JANESVILLE     SUNNY     12  -8  40 NW13      30.50R WCI  -3
$$

WIZ051-052-058>065-066-070>072-051900-
SOUTHEAST WISCONSIN

CITY           SKY/WX    TMP DP  RH WIND       PRES   REMARKS
MILWAUKEE      FAIR      12  -9  38 NW9       30.48S WCI   0
6HR MIN TEMP:   3; 6HR MAX TEMP:  13;

WAUKESHA       NOT AVBL
MILWAUKEE/TIMM SUNNY     12 -11  34 W12G17    30.48S WCI  -2
RACINE         FAIR      12  -7  42 NW10      30.50R WCI  -1
6HR MIN TEMP:   1; 6HR MAX TEMP:  12;

BURLINGTON     FAIR      10  -9  41 NW12      30.48S WCI  -4
6HR MIN TEMP: -15; 6HR MAX TEMP:  10;

KENOSHA        FAIR      12  -6  44 NW10      30.48R WCI  -1
6HR MIN TEMP:  -8; 6HR MAX TEMP:  12;

FOND DU LAC    FAIR      11  -6  46 W10       30.46F WCI  -3
6HR MIN TEMP:  -4; 6HR MAX TEMP:  11; 6HR PCP: TRACE;

SHEBOYGAN      FAIR      10  -6  48 NW15      30.47R WCI  -7
6HR MIN TEMP:  -4; 6HR MAX TEMP:  10;

WEST BEND      FAIR      12  -6  44 NW10      30.45F WCI  -1
JUNEAU         FAIR      10  -6  48 W10       30.47F WCI  -4
6HR MIN TEMP:  -4; 6HR MAX TEMP:  10;

$$

LSZ147-162-051900-
LAKE SUPERIOR

STATION/POSITION TIME  TEMP    WIND        PRES    WAVE
                       AIR SEA DIR/SP/G            HT/PER
                 (UTC) (F)     (DEG/KT/KT) (MB)    (FT/S)
DEVILS ISLAND    1800    3     240/ 18/ 21 1031.7F
PORT WING        1700    3     260/  7/ 12 1031.2F
SAXON HARBOR     1700    7     290/  5/ 11 1030.5F
$$

LMZ867-665-643>646-051900-
LAKE MICHIGAN

STATION/POSITION TIME  TEMP    WIND        PRES    WAVE
                       AIR SEA DIR/SP/G            HT/PER



USA.gov is the U.S. government's official web portal to all federal, state and local government web resources and services.